SCP
0 0 0 0 0 0 0 0 0 0 0 0 0 0 0 0 0 0 0 0 0 0 0 0 0 0 0 0 0 0 0 0 0 0 0 0 0 0 0 0 0 0 0
0 0 0 0 0 0 0 0 0 0 0 0 0 0 0 0 0 0 0 0 0 0 0 0 0 0 0 0 0 0 0 0 0 0 0 0 0 0 0 0 0 0 0
0 0 0 0 0 0 0 0 0 0 0 0 0 0 0 0 0 0 0 0 0 0 0 0 0 0 0 0 0 0 0 0 0 0 0 0 0 0 0 0 0 0 0
0 0 0 0 0 0 0 0 0 0 0 0 0 0 0 0 0 0 0 0 0 0 0 0 0 0 0 0 0 0 0 0 0 0 0 0 0 0 0 0 0 0 0
0 -0 0 0 0 0 0 -0 -0 -0 -0 0 0 0 0 0 0 0 0 0 0 0 0 0 0 0 0 0 0 0 0 0 0 0 0 0 0 0 0 0 0 0 0
0 -0 -0 -0 -0 -0 -0 -0 -0 -0 -0 -0 -0 -0 0 0 0 0 0 0 0 0 0 0 0 0 0 0 0 0 0 0 0 0 0 0 0 0 0 0 0 0 0
-0 -0 -0 -0 -0 -0 -0 -0 -0 -0 -0 -0 -0 -0 -0 0 0 0 0 0 0 0 0 0 0 0 0 0 0 0 0 0 0 0 0 0 0 0 0 0 0 0 0
0 -0 -0 -0 -0 -0 -0 -0 -0 -0 -0 -0 -0 -0 -0 -0 0 0 0 0 0 0 0 0 0 0 0 0 0 0 0 0 0 0 0 0 0 0 0 0 0 0 0
-0 -0 -0 -0 -0 -0 -0 -0 -0 -0 -0 -0 -0 -0 -0 -0 -0 0 0 0 0 0 0 0 0 0 0 0 0 0 0 0 0 0 0 0 0 0 0 0 0 0 0
-0 -0 -0 -0 -0 -0 -0 -0 -0 -0 -0 -0 0 0 0 0 0 0 0 0 0 0 0 0 0 0 0 0 0 0 0 0 0 0 0 0 0 0 0 0 0 0 0
-0 -0 -0 -0 -0 -0 -0 -0 -0 -0 -0 -0 -0 0 0 0 0 0 0 0 0 0 0 0 0 0 0 0 0 0 0 0 0 0 0 0 0 0 0 0 0 0 0
-0 -0 -0 -0 -0 -0 -0 -0 -0 -0 -0 -0 -0 -0 0 0 0 0 0 0 0 0 0 0 0 0 0 0 0 0 0 0 0 0 0 0 0 0 0 0 0 0 0
-0 0 0 0 -0 -0 -0 -0 -0 -0 0 0 -0 -0 -0 -0 -0 0 0 0 0 0 0 0 0 0 0 0 0 0 0 0 0 0 0 0 0 0 0 0 0 0 0
0 0 0 0 0 0 -0 -0 0 0 0 0 0 0 -0 -0 -0 -0 -0 -0 0 0 0 0 0 0 0 0 0 0 0 0 0 0 0 0 0 0 0 0 0 0 0
0 0 0 0 0 0 -0 -0 -0 -0 -0 -0 -0 -0 -0 -0 -0 0 0 -0 -0 0 0 0 0 0 0 0 0 0 0 0 0 0 0 0 0 0 0 0 0 0 0
0 0 0 0 0 0 0 0 -0 0 0 0 0 -0 -0 -0 0 0 0 0 0 0 0 0 0 0 0 0 0 0 0 0 0 0 0 0 0 0 0 0 0 0 0
0 0 0 0 0 0 0 0 0 0 0 0 0 0 0 0 0 0 0 0 0 0 0 0 0 0 0 0 0 0 0 0 0 0 0 0 0 0 0 0 0 0 0
0 0 0 0 0 0 0 0 0 -0 -0 -0 -0 -0 0 0 0 0 0 -0 -0 0 0 0 0 0 0 0 0 0 0 0 0 0 0 0 0 0 0 0 0 0 0
0 0 0 0 0 0 0 0 -0 -0 -0 -0 -0 -0 -0 0 0 0 0 -0 -0 -0 0 0 0 0 0 0 0 0 0 0 0 0 0 0 0 0 0 0 0 0 0
0 0 0 0 0 0 0 0 -0 -0 -0 -0 -0 -0 -0 -0 -0 -0 0 0 0 0 0 0 0 0 0 0 0 0 0 0 0 0 0 0 0 0 0 0 0 0 0
0 0 0 0 0 0 0 -0 -0 -0 -0 -0 -0 -0 0 -0 -0 -0 -0 0 0 0 0 0 0 0 0 0 0 0 0 0 0 0 0 0 0 0 0 0 0 0 0
0 0 0 0 0 0 0 -0 -0 -0 0 0 0 0 0 0 0 0 0 0 0 0 0 0 0 0 0 0 0 0 0 0 0 0 0 0 0 0 0 0 0 0 0
0 0 0 0 0 0 0 0 0 0 0 0 0 0 0 0 0 0 0 0 0 0 0 0 0 0 0 0 0 0 0 0 0 0 0 0 0 0 0 0 0 0 0
0 0 0 0 0 0 0 0 0 0 0 0 0 0 0 0 0 0 0 0 0 0 0 0 0 0 0 0 0 0 0 0 0 0 0 0 0 0 0 0 0 0 0
0 0 0 0 0 0 0 0 0 0 0 0 0 0 0 0 0 0 0 0 0 0 0 0 0 0 0 0 0 0 0 0 0 0 0 0 0 0 0 0 0 0 0
0 0 0 0 0 0 0 0 0 0 0 0 0 0 0 0 0 0 0 0 0 0 0 0 0 0 0 0 0 0 0 0 0 0 0 0 0 0 0 0 0 0 0
Wind_Speed_500mb
34 32 31 32 33 33 35 34 35 36 39 40 42 43 43 48 52 58 66 70 73 76 79 84 86 84 91 89 88 88 90 91 103 96 91 86 80 77 71 70 68 62 63
38 38 38 37 37 37 39 41 45 46 45 47 47 46 46 47 46 47 56 62 69 78 87 84 87 88 89 90 96 96 99 92 95 104 95 90 84 77 77 70 70 70 68
39 38 39 42 45 47 48 49 49 50 50 51 53 53 52 52 50 49 53 57 65 73 77 82 93 89 98 92 95 100 99 102 107 100 100 92 84 79 71 81 72 75 66
40 43 45 50 52 54 55 56 57 59 60 59 59 60 58 57 55 54 54 58 64 68 73 79 83 89 96 91 94 98 97 104 109 110 99 95 89 85 86 75 71 81 78
53 52 54 57 57 59 62 65 67 67 67 66 67 66 65 64 61 60 60 64 69 73 76 78 79 85 87 87 101 98 98 106 105 102 96 98 100 91 84 83 87 75 75
54 57 62 68 73 76 77 76 74 73 75 77 78 77 75 74 68 66 67 72 73 77 79 79 82 85 85 84 88 93 99 108 104 106 97 102 101 86 81 80 93 82 78
56 63 65 71 76 81 85 87 90 91 91 89 85 85 87 86 80 76 72 77 81 83 82 82 84 82 85 87 84 92 89 97 115 105 111 106 95 80 74 78 83 82 86
60 66 70 73 79 82 86 89 91 92 94 98 99 98 98 93 87 85 84 84 85 86 85 85 85 86 83 82 81 87 95 98 99 97 117 121 97 96 82 76 68 79 86
63 69 73 77 80 85 89 92 94 96 96 95 95 96 98 101 97 88 86 91 95 94 88 85 85 88 83 77 78 89 93 100 99 97 94 98 118 87 94 83 75 75 79
63 69 73 77 80 83 87 89 88 89 91 92 93 91 91 91 86 83 74 76 90 96 96 94 86 86 85 78 75 84 99 106 101 95 106 98 102 101 85 83 77 84 86
61 64 67 69 73 77 80 83 87 88 89 89 90 89 86 83 83 73 59 64 76 88 91 98 96 88 83 79 73 77 91 92 96 93 92 93 94 94 81 85 79 79 90
56 59 62 67 71 73 74 77 82 87 91 93 97 101 97 94 86 81 73 70 69 76 91 91 88 90 93 85 80 82 81 83 79 84 90 91 90 91 81 82 76 80 79
50 55 58 59 60 64 71 78 83 86 90 95 96 96 97 93 88 86 77 75 80 85 90 100 100 92 89 94 91 80 71 77 80 85 87 91 87 84 85 82 81 82 85
44 48 53 57 60 62 66 71 75 80 84 86 88 92 96 96 87 92 99 105 101 91 90 92 96 99 93 91 90 84 75 73 82 83 83 83 81 83 83 87 91 92 89
41 44 47 51 55 60 60 61 63 63 65 68 72 78 87 95 97 94 90 92 94 94 95 95 96 92 88 82 79 79 71 70 74 78 79 84 87 84 86 91 97 96 98
41 44 46 50 53 56 60 63 55 56 60 62 62 64 72 69 86 88 88 88 84 80 79 73 80 79 81 86 84 83 69 72 71 69 73 84 91 92 89 93 99 101 104
39 42 45 47 50 55 60 66 76 68 60 61 64 68 71 74 82 82 86 86 78 72 60 64 66 60 64 82 80 80 80 77 75 67 69 82 89 93 93 95 101 103 103
36 39 42 45 49 52 56 61 65 71 80 80 72 72 75 74 80 81 85 88 91 81 83 83 81 77 77 75 73 81 81 80 78 78 72 78 91 92 94 96 98 102 101
34 37 41 44 47 51 55 58 61 65 69 74 80 79 77 76 79 77 80 88 90 90 90 89 88 86 81 76 70 62 78 81 77 78 79 81 89 92 94 95 98 103 98
32 36 41 46 50 52 53 56 60 64 67 71 74 80 83 84 86 85 81 82 84 84 85 85 88 89 88 84 76 67 59 67 76 77 79 85 87 90 92 90 94 94 95
36 39 43 44 48 51 54 56 59 62 64 66 67 69 67 72 75 78 81 79 78 79 81 82 83 85 86 86 83 76 67 55 48 71 74 78 81 83 86 86 87 86 89
37 40 44 47 47 49 52 54 57 59 62 65 67 66 68 71 74 76 77 78 77 74 73 75 77 79 78 79 81 81 75 66 55 47 46 69 74 78 79 84 84 86 92
37 40 43 46 49 52 53 56 59 61 62 63 66 69 70 71 72 74 76 78 79 77 75 73 73 75 74 71 68 67 72 71 64 53 47 47 61 69 74 79 83 87 95
38 42 45 47 50 53 56 59 60 61 63 64 65 67 69 70 72 72 73 75 77 78 76 74 73 71 71 70 67 61 55 61 62 52 41 40 44 56 64 72 79 84 89
40 43 46 50 53 56 58 59 60 61 62 65 66 67 69 70 71 72 74 75 76 77 77 76 74 72 70 67 64 60 54 50 60 48 42 32 33 42 53 62 68 70 71
42 45 48 51 54 57 61 64 65 66 68 69 69 70 71 71 71 72 73 75 76 77 74 74 74 72 70 67 63 58 54 47 59 51 37 31 20 22 36 46 53 62 67
Wind_Direction_500mb
48 43 36 29 22 16 10 6 356 350 342 332 317 306 302 297 291 286 285 284 286 287 285 287 286 283 276 274 272 269 267 267 262 268 268 272 273 272 270 270 275 263 262
30 24 19 15 10 6 3 356 350 346 343 333 329 326 316 306 299 289 286 283 281 282 284 281 285 284 282 280 274 271 268 267 266 267 268 267 267 264 268 261 264 259 261
13 9 4 358 355 352 348 344 341 337 333 330 327 324 323 320 318 307 297 288 282 280 279 278 276 280 278 279 275 271 270 269 264 265 265 264 260 264 262 257 255 258 256
359 357 354 350 347 342 338 335 333 330 327 325 324 322 320 318 318 315 311 300 289 281 278 278 277 274 271 271 277 275 276 269 261 257 257 255 257 257 259 251 256 255 254
349 346 345 343 339 336 334 332 329 328 326 323 320 317 316 315 316 313 307 302 299 294 287 280 275 274 274 275 275 274 273 266 259 249 252 256 250 249 251 256 259 251 253
345 342 340 339 337 334 332 331 329 326 324 322 320 319 315 313 311 308 304 301 296 293 294 292 287 280 274 272 273 273 273 269 267 250 244 244 254 262 260 261 252 239 245
341 341 339 336 334 331 329 328 327 325 323 320 319 317 315 312 311 307 303 298 296 295 292 292 291 288 281 274 273 275 271 269 272 263 258 264 259 259 259 258 249 257 253
344 343 341 338 335 332 330 328 326 324 322 320 317 316 314 313 313 310 306 301 297 293 291 290 289 289 286 280 276 272 271 269 268 268 261 261 264 266 264 261 260 255 243
347 346 345 345 341 339 335 334 332 328 324 321 318 316 315 312 314 314 312 305 300 296 293 289 288 286 285 282 272 275 275 272 274 272 268 266 268 264 259 253 243 238 236
355 354 352 349 347 345 344 341 338 335 331 328 322 318 318 317 317 316 319 311 302 301 298 294 288 286 285 281 276 266 268 269 271 272 269 266 264 260 254 250 245 238 230
2 358 356 353 352 352 349 346 343 340 337 336 333 331 329 327 325 323 318 309 306 303 299 299 297 296 290 287 281 269 261 269 271 272 273 268 261 252 247 250 245 246 240
4 0 359 358 357 353 352 354 357 357 354 351 346 342 341 340 339 334 324 315 307 300 299 297 296 297 297 292 286 278 263 260 270 270 268 266 259 252 244 244 252 242 241
2 0 360 0 359 359 1 4 6 5 1 356 349 340 337 338 339 341 333 319 312 307 296 295 299 298 297 294 289 282 276 265 265 266 264 262 258 256 246 241 240 232 233
359 358 357 354 355 358 3 5 6 6 3 355 349 342 336 337 337 335 326 317 311 306 304 300 298 297 294 294 294 293 281 266 265 266 266 265 259 251 252 243 232 228 226
352 351 349 349 352 354 357 2 3 9 7 355 348 340 341 337 341 335 333 328 317 308 301 295 296 296 293 293 292 291 290 286 271 267 266 262 257 252 244 242 232 225 222
343 344 347 351 353 354 352 350 1 3 3 359 355 347 338 340 339 342 340 337 330 316 308 313 300 299 295 294 289 288 283 284 284 277 269 261 258 252 244 240 232 227 223
342 346 352 352 354 353 352 351 348 354 2 358 353 351 348 344 347 347 347 348 348 339 331 329 326 325 326 302 292 283 278 280 283 277 271 265 257 252 247 243 236 230 223
344 348 351 353 353 354 355 354 352 353 353 355 356 355 348 350 354 354 354 352 357 359 357 351 343 334 328 322 316 287 281 280 277 272 269 265 258 254 244 241 239 234 221
342 347 350 351 353 352 352 352 352 353 355 353 352 353 351 353 350 355 358 3 3 3 2 359 354 348 342 336 328 322 289 283 280 275 272 263 256 251 243 242 239 236 221
346 349 350 351 350 350 351 352 352 353 354 354 354 352 353 352 353 354 358 0 0 360 359 359 359 357 352 347 342 335 329 294 286 279 275 266 260 252 245 238 232 225 215
348 349 350 349 347 348 348 349 352 351 351 352 353 352 352 350 354 354 356 357 357 357 357 356 358 358 358 355 351 346 342 330 329 281 279 269 258 250 246 236 230 221 209
344 346 346 346 346 347 347 348 349 350 349 348 349 349 349 350 351 352 352 353 355 355 354 353 354 356 358 359 357 353 348 342 334 318 296 275 267 255 243 235 227 218 212
341 344 343 342 344 345 344 347 347 346 346 346 345 345 346 347 347 347 347 348 349 351 352 351 350 351 352 354 358 360 356 353 342 330 315 293 273 259 245 235 226 217 210
338 339 339 341 342 342 343 344 343 342 342 342 342 342 342 342 343 343 343 344 344 345 347 348 347 346 346 348 350 352 359 358 352 341 323 304 272 253 238 225 217 211 208
334 336 337 339 341 341 341 341 341 340 340 339 339 339 338 338 339 340 341 342 342 343 344 344 344 342 342 341 343 346 349 357 353 348 348 325 289 257 234 222 213 208 206
331 332 335 337 337 338 338 338 339 339 339 339 338 337 337 337 337 338 339 339 341 341 343 344 344 342 340 339 338 341 346 348 356 348 349 355 338 267 237 222 206 192 186
Wind_Speed_850mb
34 32 31 32 33 33 35 34 35 36 39 40 42 43 43 48 52 58 66 70 73 76 79 84 86 84 91 89 88 88 90 91 103 96 91 86 80 77 71 70 68 62 63
38 38 38 37 37 37 39 41 45 46 45 47 47 46 46 47 46 47 56 62 69 78 87 84 87 88 89 90 96 96 99 92 95 104 95 90 84 77 77 70 70 70 68
39 38 39 42 45 47 48 49 49 50 50 51 53 53 52 52 50 49 53 57 65 73 77 82 93 89 98 92 95 100 99 102 107 100 100 92 84 79 71 81 72 75 66
40 43 45 50 52 54 55 56 57 59 60 59 59 60 58 57 55 54 54 58 64 68 73 79 83 89 96 91 94 98 97 104 109 110 99 95 89 85 86 75 71 81 78
53 52 54 57 57 59 62 65 67 67 67 66 67 66 65 64 61 60 60 64 69 73 76 78 79 85 87 87 101 98 98 106 105 102 96 98 100 91 84 83 87 75 75
54 57 62 68 73 76 77 76 74 73 75 77 78 77 75 74 68 66 67 72 73 77 79 79 82 85 85 84 88 93 99 108 104 106 97 102 101 86 81 80 93 82 78
56 63 65 71 76 81 85 87 90 91 91 89 85 85 87 86 80 76 72 77 81 83 82 82 84 82 85 87 84 92 89 97 115 105 111 106 95 80 74 78 83 82 86
60 66 70 73 79 82 86 89 91 92 94 98 99 98 98 93 87 85 84 84 85 86 85 85 85 86 83 82 81 87 95 98 99 97 117 121 97 96 82 76 68 79 86
63 69 73 77 80 85 89 92 94 96 96 95 95 96 98 101 97 88 86 91 95 94 88 85 85 88 83 77 78 89 93 100 99 97 94 98 118 87 94 83 75 75 79
63 69 73 77 80 83 87 89 88 89 91 92 93 91 91 91 86 83 74 76 90 96 96 94 86 86 85 78 75 84 99 106 101 95 106 98 102 101 85 83 77 84 86
61 64 67 69 73 77 80 83 87 88 89 89 90 89 86 83 83 73 59 64 76 88 91 98 96 88 83 79 73 77 91 92 96 93 92 93 94 94 81 85 79 79 90
56 59 62 67 71 73 74 77 82 87 91 93 97 101 97 94 86 81 73 70 69 76 91 91 88 90 93 85 80 82 81 83 79 84 90 91 90 91 81 82 76 80 79
50 55 58 59 60 64 71 78 83 86 90 95 96 96 97 93 88 86 77 75 80 85 90 100 100 92 89 94 91 80 71 77 80 85 87 91 87 84 85 82 81 82 85
44 48 53 57 60 62 66 71 75 80 84 86 88 92 96 96 87 92 99 105 101 91 90 92 96 99 93 91 90 84 75 73 82 83 83 83 81 83 83 87 91 92 89
41 44 47 51 55 60 60 61 63 63 65 68 72 78 87 95 97 94 90 92 94 94 95 95 96 92 88 82 79 79 71 70 74 78 79 84 87 84 86 91 97 96 98
41 44 46 50 53 56 60 63 55 56 60 62 62 64 72 69 86 88 88 88 84 80 79 73 80 79 81 86 84 83 69 72 71 69 73 84 91 92 89 93 99 101 104
39 42 45 47 50 55 60 66 76 68 60 61 64 68 71 74 82 82 86 86 78 72 60 64 66 60 64 82 80 80 80 77 75 67 69 82 89 93 93 95 101 103 103
36 39 42 45 49 52 56 61 65 71 80 80 72 72 75 74 80 81 85 88 91 81 83 83 81 77 77 75 73 81 81 80 78 78 72 78 91 92 94 96 98 102 101
34 37 41 44 47 51 55 58 61 65 69 74 80 79 77 76 79 77 80 88 90 90 90 89 88 86 81 76 70 62 78 81 77 78 79 81 89 92 94 95 98 103 98
32 36 41 46 50 52 53 56 60 64 67 71 74 80 83 84 86 85 81 82 84 84 85 85 88 89 88 84 76 67 59 67 76 77 79 85 87 90 92 90 94 94 95
36 39 43 44 48 51 54 56 59 62 64 66 67 69 67 72 75 78 81 79 78 79 81 82 83 85 86 86 83 76 67 55 48 71 74 78 81 83 86 86 87 86 89
37 40 44 47 47 49 52 54 57 59 62 65 67 66 68 71 74 76 77 78 77 74 73 75 77 79 78 79 81 81 75 66 55 47 46 69 74 78 79 84 84 86 92
37 40 43 46 49 52 53 56 59 61 62 63 66 69 70 71 72 74 76 78 79 77 75 73 73 75 74 71 68 67 72 71 64 53 47 47 61 69 74 79 83 87 95
38 42 45 47 50 53 56 59 60 61 63 64 65 67 69 70 72 72 73 75 77 78 76 74 73 71 71 70 67 61 55 61 62 52 41 40 44 56 64 72 79 84 89
40 43 46 50 53 56 58 59 60 61 62 65 66 67 69 70 71 72 74 75 76 77 77 76 74 72 70 67 64 60 54 50 60 48 42 32 33 42 53 62 68 70 71
42 45 48 51 54 57 61 64 65 66 68 69 69 70 71 71 71 72 73 75 76 77 74 74 74 72 70 67 63 58 54 47 59 51 37 31 20 22 36 46 53 62 67
Wind_Direction_850mb
48 43 36 29 22 16 10 6 356 350 342 332 317 306 302 297 291 286 285 284 286 287 285 287 286 283 276 274 272 269 267 267 262 268 268 272 273 272 270 270 275 263 262
30 24 19 15 10 6 3 356 350 346 343 333 329 326 316 306 299 289 286 283 281 282 284 281 285 284 282 280 274 271 268 267 266 267 268 267 267 264 268 261 264 259 261
13 9 4 358 355 352 348 344 341 337 333 330 327 324 323 320 318 307 297 288 282 280 279 278 276 280 278 279 275 271 270 269 264 265 265 264 260 264 262 257 255 258 256
359 357 354 350 347 342 338 335 333 330 327 325 324 322 320 318 318 315 311 300 289 281 278 278 277 274 271 271 277 275 276 269 261 257 257 255 257 257 259 251 256 255 254
349 346 345 343 339 336 334 332 329 328 326 323 320 317 316 315 316 313 307 302 299 294 287 280 275 274 274 275 275 274 273 266 259 249 252 256 250 249 251 256 259 251 253
345 342 340 339 337 334 332 331 329 326 324 322 320 319 315 313 311 308 304 301 296 293 294 292 287 280 274 272 273 273 273 269 267 250 244 244 254 262 260 261 252 239 245
341 341 339 336 334 331 329 328 327 325 323 320 319 317 315 312 311 307 303 298 296 295 292 292 291 288 281 274 273 275 271 269 272 263 258 264 259 259 259 258 249 257 253
344 343 341 338 335 332 330 328 326 324 322 320 317 316 314 313 313 310 306 301 297 293 291 290 289 289 286 280 276 272 271 269 268 268 261 261 264 266 264 261 260 255 243
347 346 345 345 341 339 335 334 332 328 324 321 318 316 315 312 314 314 312 305 300 296 293 289 288 286 285 282 272 275 275 272 274 272 268 266 268 264 259 253 243 238 236
355 354 352 349 347 345 344 341 338 335 331 328 322 318 318 317 317 316 319 311 302 301 298 294 288 286 285 281 276 266 268 269 271 272 269 266 264 260 254 250 245 238 230
2 358 356 353 352 352 349 346 343 340 337 336 333 331 329 327 325 323 318 309 306 303 299 299 297 296 290 287 281 269 261 269 271 272 273 268 261 252 247 250 245 246 240
4 0 359 358 357 353 352 354 357 357 354 351 346 342 341 340 339 334 324 315 307 300 299 297 296 297 297 292 286 278 263 260 270 270 268 266 259 252 244 244 252 242 241
2 0 360 0 359 359 1 4 6 5 1 356 349 340 337 338 339 341 333 319 312 307 296 295 299 298 297 294 289 282 276 265 265 266 264 262 258 256 246 241 240 232 233
359 358 357 354 355 358 3 5 6 6 3 355 349 342 336 337 337 335 326 317 311 306 304 300 298 297 294 294 294 293 281 266 265 266 266 265 259 251 252 243 232 228 226
352 351 349 349 352 354 357 2 3 9 7 355 348 340 341 337 341 335 333 328 317 308 301 295 296 296 293 293 292 291 290 286 271 267 266 262 257 252 244 242 232 225 222
343 344 347 351 353 354 352 350 1 3 3 359 355 347 338 340 339 342 340 337 330 316 308 313 300 299 295 294 289 288 283 284 284 277 269 261 258 252 244 240 232 227 223
342 346 352 352 354 353 352 351 348 354 2 358 353 351 348 344 347 347 347 348 348 339 331 329 326 325 326 302 292 283 278 280 283 277 271 265 257 252 247 243 236 230 223
344 348 351 353 353 354 355 354 352 353 353 355 356 355 348 350 354 354 354 352 357 359 357 351 343 334 328 322 316 287 281 280 277 272 269 265 258 254 244 241 239 234 221
342 347 350 351 353 352 352 352 352 353 355 353 352 353 351 353 350 355 358 3 3 3 2 359 354 348 342 336 328 322 289 283 280 275 272 263 256 251 243 242 239 236 221
346 349 350 351 350 350 351 352 352 353 354 354 354 352 353 352 353 354 358 0 0 360 359 359 359 357 352 347 342 335 329 294 286 279 275 266 260 252 245 238 232 225 215
348 349 350 349 347 348 348 349 352 351 351 352 353 352 352 350 354 354 356 357 357 357 357 356 358 358 358 355 351 346 342 330 329 281 279 269 258 250 246 236 230 221 209
344 346 346 346 346 347 347 348 349 350 349 348 349 349 349 350 351 352 352 353 355 355 354 353 354 356 358 359 357 353 348 342 334 318 296 275 267 255 243 235 227 218 212
341 344 343 342 344 345 344 347 347 346 346 346 345 345 346 347 347 347 347 348 349 351 352 351 350 351 352 354 358 360 356 353 342 330 315 293 273 259 245 235 226 217 210
338 339 339 341 342 342 343 344 343 342 342 342 342 342 342 342 343 343 343 344 344 345 347 348 347 346 346 348 350 352 359 358 352 341 323 304 272 253 238 225 217 211 208
334 336 337 339 341 341 341 341 341 340 340 339 339 339 338 338 339 340 341 342 342 343 344 344 344 342 342 341 343 346 349 357 353 348 348 325 289 257 234 222 213 208 206
331 332 335 337 337 338 338 338 339 339 339 339 338 337 337 337 337 338 339 339 341 341 343 344 344 342 340 339 338 341 346 348 356 348 349 355 338 267 237 222 206 192 186